[[{"header":{"parameterUnit":"m.s-1","parameterCategory":1,"la1":30.2991,"la2":30.254,"lo1":-89.0895,"lo2":-89.0444,"dy":0.0017,"dx":0.0017,"nx":28,"ny":28,"refTime":"2025-05-28T03:00:00:Z","depth":0,"parameterNumber":2,"parameterNumberName":"U-component_of_WINDS"},"data":[0,0,0,0,0,0,0,0,0,0,0,0,0,0,0,0,0,0,0,0,0,0,0,0,0,0,0,0,0,0,0,0,0,0,0,0,0,0,0,0,0,0,0,0,0,0,0,0,0,0,0,0,0,0,0,0,0,0,-0.0616,-0.0617,0,-0.0722,-0.0724,-0.0725,-0.0786,-0.0787,-0.0787,-0.0787,-0.0896,-0.0899,-0.0902,0,0,0,0,0,0,0,0,0,0,0,0,0,-0.0467,-0.047,-0.0616,-0.0617,-0.0619,-0.0722,-0.0724,-0.0725,-0.0786,-0.0787,-0.0787,-0.0787,-0.0896,-0.0899,-0.0902,0,0,0,0,0,0,0,0,0,0,0,0,0,-0.0548,-0.047,-0.0616,-0.0662,-0.0667,-0.0722,-0.0724,-0.0726,-0.0786,-0.0787,-0.0787,-0.0787,-0.0895,-0.0898,-0.0902,-0.092,0,0,-0.0915,-0.0917,0,0,0,0,0,0,0,0,-0.0544,-0.0554,-0.0654,-0.0659,-0.0665,-0.0742,-0.0711,-0.0791,-0.0786,-0.0741,-0.0787,-0.0788,-0.0845,-0.0853,-0.0872,-0.0925,-0.093,-0.0915,-0.0918,-0.0919,-0.092,0,0,0,0,0,0,0,-0.0538,-0.055,-0.0658,-0.0655,-0.0662,-0.0677,-0.0689,-0.0727,-0.079,-0.0745,-0.075,-0.0761,-0.0848,-0.0868,-0.0875,-0.0932,-0.0915,-0.0919,-0.0921,-0.0923,-0.1006,-0.1006,0,0,0,0,0,0,-0.0525,-0.0545,-0.0655,-0.0661,-0.0604,-0.068,-0.0693,-0.0717,-0.0789,-0.0801,-0.0761,-0.0764,-0.0861,-0.087,-0.0879,-0.0906,-0.0919,-0.0923,-0.0925,-0.1006,-0.1006,-0.1006,0,0,0,0,0,0,-0.0522,-0.0534,-0.0651,-0.0604,-0.062,-0.0682,-0.0708,-0.0718,-0.0739,-0.0801,-0.0813,-0.077,-0.0862,-0.0873,-0.091,-0.091,-0.0925,-0.0929,-0.1006,-0.1006,-0.1006,-0.0958,0,0,0,0,0,0,-0.0517,-0.0533,-0.054,-0.0604,-0.0623,-0.0679,-0.0708,-0.072,-0.0745,-0.075,-0.0813,-0.0824,-0.0863,-0.0903,-0.0914,-0.0916,-0.0932,-0.1007,-0.1006,-0.1006,-0.096,-0.0956,-0.0953,0,0,0,0,0,-0.0511,-0.0522,-0.054,-0.0553,-0.0633,-0.0679,-0.069,-0.0734,-0.0745,-0.0753,-0.0794,-0.0822,-0.0908,-0.0907,-0.0919,-0.0922,-0.1007,-0.1006,-0.1006,-0.0961,-0.0957,-0.0953,0,0,0,0,0,0,-0.0457,-0.0532,-0.0552,-0.0584,-0.0624,-0.0689,-0.0701,-0.0728,-0.0767,-0.0769,-0.0823,-0.0837,-0.0868,-0.0899,-0.0896,-0.0944,-0.0961,-0.0963,-0.0923,-0.0919,-0.0915,-0.0908,-0.0935,0,0,0,0,0,-0.0448,-0.0479,-0.0543,-0.0565,-0.0584,-0.0639,-0.0661,-0.0691,-0.0736,-0.0753,-0.0796,-0.0839,-0.0876,-0.0899,-0.0936,-0.0964,-0.0979,-0.0973,-0.0969,-0.0966,-0.0967,-0.0985,-0.0984,-0.1004,-0.1004,-0.1004,0,0,-0.0432,-0.0476,-0.0492,-0.0555,-0.059,-0.0622,-0.0653,-0.0685,-0.0709,-0.0758,-0.0796,-0.0828,-0.0879,-0.0912,-0.0928,-0.0938,-0.0965,-0.0965,-0.0962,-0.0966,-0.0985,-0.0983,-0.0981,-0.1004,-0.1004,-0.1004,0,0,-0.0417,-0.0453,-0.0476,-0.0511,-0.0563,-0.06,-0.0605,-0.0666,-0.0689,-0.0727,-0.0766,-0.0795,-0.0857,-0.0892,-0.0918,-0.0916,-0.0944,-0.0926,-0.0909,-0.0926,-0.0924,-0.0923,-0.0923,-0.0923,-0.0927,-0.0927,-0.0927,0,-0.039,-0.0438,-0.0484,-0.0514,-0.0541,-0.0587,-0.061,-0.0642,-0.0704,-0.0722,-0.0732,-0.0811,-0.0848,-0.089,-0.089,-0.0909,-0.0917,-0.092,-0.092,-0.092,-0.0919,-0.092,-0.092,-0.0925,-0.0925,-0.0925,-0.0926,0,-0.0402,-0.0435,-0.0447,-0.0506,-0.0534,-0.056,-0.0611,-0.0634,-0.0661,-0.0697,-0.0735,-0.0781,-0.0829,-0.0841,-0.0869,-0.0887,-0.0892,-0.091,-0.0929,-0.0914,-0.0916,-0.0917,-0.0921,-0.0922,-0.0923,-0.0924,0,0,-0.0357,-0.0441,-0.0445,-0.0472,-0.0534,-0.056,-0.0589,-0.0635,-0.0654,-0.0695,-0.0721,-0.0773,-0.0791,-0.082,-0.0852,-0.0866,-0.0863,-0.0884,-0.0886,-0.0879,-0.0887,-0.0873,-0.0873,-0.0881,-0.0881,-0.0882,-0.0883,0,-0.0353,-0.0406,-0.0448,-0.0486,-0.0518,-0.0561,-0.0586,-0.0627,-0.066,-0.0692,-0.0729,-0.0765,-0.0785,-0.0803,-0.082,-0.086,-0.0866,-0.086,-0.0907,-0.0908,-0.0894,-0.0874,-0.0859,-0.0858,-0.0884,-0.0884,-0.0884,0,-0.0355,-0.0394,-0.0435,-0.0493,-0.0508,-0.053,-0.0576,-0.0606,-0.0653,-0.0676,-0.0708,-0.0741,-0.0774,-0.0788,-0.0834,-0.0829,-0.0851,-0.0873,-0.0874,-0.0881,-0.0896,-0.0881,-0.0859,-0.0859,-0.0886,-0.0885,-0.0885,0,-0.0319,-0.0382,-0.0415,-0.0437,-0.0506,-0.052,-0.055,-0.0597,-0.0622,-0.0662,-0.068,-0.0723,-0.0747,-0.078,-0.0824,-0.083,-0.0866,-0.0883,-0.0887,-0.0886,-0.0893,-0.0893,-0.0875,-0.0905,-0.0905,-0.0905,-0.0905,0,-0.0311,-0.0334,-0.04,-0.042,-0.0448,-0.0496,-0.0523,-0.0556,-0.0597,-0.0625,-0.0665,-0.0691,-0.0747,-0.0779,-0.0813,-0.0847,-0.0857,-0.0877,-0.0886,-0.0874,-0.0872,-0.089,-0.0892,-0.0905,-0.0905,-0.0905,-0.0905,0,-0.0276,-0.0321,-0.036,-0.0422,-0.0438,-0.0456,-0.0509,-0.053,-0.0565,-0.06,-0.0611,-0.0666,-0.0706,-0.0753,-0.0808,-0.0832,-0.0862,-0.0875,-0.0846,-0.0852,-0.0853,-0.0853,-0.0848,-0.085,-0.0877,-0.0876,-0.0876,0,-0.0268,-0.0287,-0.0351,-0.0372,-0.04,-0.0434,-0.046,-0.0508,-0.0534,-0.0588,-0.0603,-0.0646,-0.0683,-0.0745,-0.079,-0.0833,-0.0848,-0.0843,-0.0855,-0.0842,-0.0849,-0.0848,-0.0851,-0.084,-0.084,-0.084,-0.0839,0,-0.025,-0.0271,-0.0307,-0.035,-0.038,-0.0417,-0.0455,-0.047,-0.0526,-0.0553,-0.0594,-0.0623,-0.0679,-0.0721,-0.0769,-0.08,-0.0829,-0.0835,-0.0838,-0.0827,-0.081,-0.082,-0.0839,-0.0835,-0.0836,-0.0836,-0.0836,-0.0836,-0.0229,-0.0249,-0.0296,-0.0335,-0.0369,-0.0403,-0.0427,-0.0465,-0.05,-0.0549,-0.0575,-0.0616,-0.0663,-0.0731,-0.076,-0.0793,-0.0803,-0.0807,-0.0809,-0.081,-0.0807,-0.0803,-0.0802,-0.0802,-0.0802,-0.0802,-0.0803,0,-0.0214,-0.0247,-0.0281,-0.0334,-0.0364,-0.0388,-0.0432,-0.0456,-0.0491,-0.0532,-0.0567,-0.0615,-0.0656,-0.0704,-0.0749,-0.0766,-0.078,-0.0776,-0.0776,-0.0782,-0.0795,-0.0788,-0.0763,-0.0763,-0.0763,-0.0763,-0.0763,-0.0763,-0.021,-0.0243,-0.027,-0.0321,-0.0354,-0.0394,-0.0417,-0.045,-0.0483,-0.0534,-0.0568,-0.0599,-0.0643,-0.0691,-0.073,-0.0743,-0.0758,-0.075,-0.0767,-0.0778,-0.0781,-0.0785,-0.0779,-0.0753,-0.0753,-0.0753,-0.0753,-0.0753]},{"header":{"parameterUnit":"m.s-1","parameterCategory":1,"la1":30.2991,"la2":30.254,"lo1":-89.0895,"lo2":-89.0444,"dy":0.0017,"dx":0.0017,"nx":28,"ny":28,"refTime":"2025-05-28T03:00:00:Z","depth":0,"parameterNumber":3,"parameterNumberName":"V-component_of_WINDS"},"data":[0,0,0,0,0,0,0,0,0,0,0,0,0,0,0,0,0,0,0,0,0,0,0,0,0,0,0,0,0,0,0,0,0,0,0,0,0,0,0,0,0,0,0,0,0,0,0,0,0,0,0,0,0,0,0,0,0,0,5.5704,5.5704,0,5.5702,5.5702,5.5702,5.5587,5.5584,5.5582,5.5579,5.5576,5.5579,5.5582,0,0,0,0,0,0,0,0,0,0,0,0,0,5.5607,5.5609,5.5704,5.5704,5.5704,5.5702,5.5702,5.5702,5.5588,5.5584,5.5581,5.5577,5.5575,5.5579,5.5582,0,0,0,0,0,0,0,0,0,0,0,0,0,5.5632,5.561,5.5704,5.5647,5.5641,5.5702,5.5702,5.5702,5.5589,5.5584,5.558,5.5576,5.5574,5.5578,5.5582,5.5697,0,0,5.5595,5.5596,0,0,0,0,0,0,0,0,5.563,5.5635,5.5655,5.5651,5.5645,5.564,5.5666,5.57,5.559,5.5609,5.5579,5.5573,5.5601,5.5603,5.5612,5.5697,5.5696,5.5595,5.5598,5.5599,5.56,0,0,0,0,0,0,0,5.5629,5.5635,5.5703,5.5655,5.5649,5.5621,5.5619,5.5672,5.563,5.5607,5.5598,5.56,5.5598,5.5609,5.5611,5.5696,5.5595,5.5599,5.5601,5.5603,5.5871,5.5876,0,0,0,0,0,0,5.5635,5.5634,5.5703,5.5703,5.5627,5.5626,5.5624,5.5646,5.5629,5.5622,5.5604,5.5595,5.5604,5.5607,5.5611,5.574,5.5599,5.5603,5.5605,5.5867,5.5872,5.5877,0,0,0,0,0,0,5.5633,5.5642,5.5703,5.5666,5.5672,5.5632,5.5658,5.5649,5.5659,5.5627,5.5618,5.5623,5.56,5.5605,5.5675,5.5739,5.5605,5.5609,5.5861,5.5868,5.5875,5.6003,0,0,0,0,0,0,5.5631,5.5642,5.5686,5.5668,5.5674,5.5769,5.5662,5.5652,5.5667,5.5655,5.5642,5.5636,5.5597,5.567,5.568,5.5742,5.5612,5.5855,5.5864,5.5873,5.5993,5.6014,5.6032,0,0,0,0,0,5.5628,5.5723,5.5689,5.5698,5.5728,5.5772,5.5776,5.5729,5.5672,5.5715,5.5694,5.5636,5.5731,5.5678,5.5688,5.5753,5.5851,5.5862,5.5872,5.5985,5.601,5.6031,0,0,0,0,0,0,5.5749,5.5719,5.5681,5.5773,5.5776,5.5753,5.5805,5.5758,5.5777,5.5765,5.5707,5.5705,5.5784,5.5776,5.5717,5.5861,5.5781,5.5794,5.5863,5.5887,5.5906,5.5905,5.5615,0,0,0,0,0,5.5787,5.5826,5.5798,5.5881,5.5885,5.5846,5.5863,5.5827,5.5828,5.5828,5.5812,5.5815,5.5845,5.5866,5.5892,5.5992,5.5987,5.6042,5.6061,5.6077,5.6088,5.6138,5.6161,5.5912,5.5912,5.5912,0,0,5.5865,5.5853,5.5882,5.5906,5.5903,5.5944,5.5847,5.5895,5.5924,5.5836,5.59,5.5889,5.5888,5.5973,5.601,5.5969,5.6156,5.6091,5.6104,5.6106,5.6151,5.6175,5.6196,5.5919,5.5918,5.5917,0,0,5.6026,5.6023,5.609,5.609,5.6088,5.6061,5.6078,5.6062,5.6051,5.6115,5.6048,5.6082,5.6136,5.6137,5.6145,5.6306,5.6253,5.6317,5.6416,5.6465,5.6485,5.6502,5.6556,5.6577,5.6328,5.6329,5.6329,0,5.6123,5.6182,5.6131,5.6183,5.6194,5.6116,5.6183,5.6186,5.6193,5.6202,5.6156,5.622,5.6215,5.6297,5.6337,5.6347,5.6362,5.6316,5.6486,5.6503,5.6518,5.6569,5.659,5.6336,5.6335,5.6335,5.6334,0,5.6299,5.6341,5.6396,5.6403,5.6421,5.6481,5.6438,5.6463,5.6425,5.6403,5.6468,5.6459,5.648,5.6498,5.6462,5.6575,5.6549,5.6496,5.6414,5.655,5.6597,5.6616,5.6347,5.6344,5.6342,5.634,0,0,5.6536,5.6514,5.6535,5.6536,5.6528,5.6559,5.6615,5.6635,5.6656,5.6664,5.6707,5.6754,5.6704,5.6713,5.6677,5.6721,5.6845,5.6661,5.666,5.6693,5.6966,5.7004,5.7028,5.6811,5.6815,5.6818,5.6965,0,5.6689,5.6782,5.6737,5.6835,5.6871,5.6797,5.6845,5.6845,5.6826,5.6854,5.6832,5.6865,5.6798,5.6803,5.6843,5.6822,5.6899,5.6811,5.6849,5.6851,5.6848,5.7053,5.7093,5.7233,5.6984,5.6987,5.6989,0,5.6881,5.6895,5.6996,5.6978,5.6992,5.7036,5.705,5.7078,5.7076,5.7059,5.7069,5.7022,5.7074,5.6995,5.7065,5.7006,5.7019,5.7011,5.7015,5.7015,5.6926,5.7055,5.7277,5.7297,5.7018,5.7016,5.7014,0,5.7039,5.7084,5.7149,5.7153,5.7136,5.7167,5.7162,5.7155,5.717,5.7183,5.7191,5.7211,5.7221,5.7237,5.7196,5.7143,5.7271,5.7189,5.7256,5.7257,5.7284,5.7282,5.7508,5.7298,5.7298,5.7298,5.7297,0,5.7213,5.7277,5.7219,5.7259,5.7328,5.7277,5.7346,5.7332,5.7327,5.7362,5.7301,5.7335,5.7281,5.731,5.7279,5.734,5.7346,5.7332,5.7323,5.7336,5.7337,5.7342,5.733,5.7303,5.7302,5.7301,5.73,0,5.74,5.7365,5.743,5.7408,5.7404,5.7456,5.7436,5.7472,5.7448,5.7494,5.7501,5.7465,5.7495,5.7457,5.7485,5.7464,5.7546,5.7524,5.7546,5.7539,5.7607,5.76,5.7841,5.7869,5.7645,5.7647,5.7649,0,5.7512,5.7559,5.7542,5.7561,5.7558,5.759,5.7604,5.7556,5.7573,5.7573,5.7608,5.7634,5.7651,5.7704,5.7679,5.77,5.7675,5.7759,5.7678,5.7689,5.7673,5.7669,5.7673,5.7774,5.7777,5.7779,5.7781,0,5.7714,5.7693,5.7716,5.7732,5.775,5.7761,5.7767,5.7787,5.7736,5.7758,5.7788,5.7802,5.7829,5.7855,5.7868,5.7862,5.7813,5.7807,5.7823,5.7835,5.7845,5.7838,5.7588,5.7801,5.7799,5.7797,5.7796,5.7795,5.7864,5.7901,5.7894,5.7921,5.792,5.7927,5.7958,5.7939,5.7963,5.798,5.7951,5.7988,5.7984,5.7997,5.7996,5.8025,5.7989,5.8013,5.8018,5.8024,5.8033,5.7844,5.8027,5.8027,5.8026,5.8026,5.8025,0,5.8059,5.8051,5.8076,5.8086,5.8106,5.8059,5.8063,5.8083,5.8116,5.8116,5.8134,5.8168,5.8193,5.817,5.819,5.8217,5.8194,5.8223,5.8219,5.8218,5.8066,5.8048,5.8241,5.8241,5.8241,5.824,5.824,5.824,5.8163,5.8222,5.8201,5.8259,5.825,5.8286,5.8292,5.8297,5.8296,5.8337,5.8356,5.8341,5.8332,5.835,5.837,5.8363,5.8371,5.8408,5.8393,5.825,5.8229,5.8209,5.8192,5.8411,5.8411,5.8542,5.8543,5.8544]}]]